星链-35135(STARLINK-35135)

导读

STARLINK-35135是美国太空探索技术公司SpaceX星链星座的一颗卫星,于2025年9月18日成功发射。星链项目旨在构建全球卫星互联网星座,为全球范围提供高速低延迟的宽带互联网服务,该卫星入轨后将进一步扩充星链星座的网络覆盖能力与服务容量。

Basic Information
目录编号:
65629
目录名称:
STARLINK-35135
国际标识:
2025-210H
轨道中心:
EARTH
卫星名称:
星链-35135
卫星全名:
星链-35135(STARLINK-35135)
卫星状态:
在轨 (已飞行359 天)
发射日期:
2025-09-18 UTC
国别 :
美国 (US)
星等 :
--
This satellite is enrolled in the Space Conjunction Data Service (SCDS) and the current flight risk assessment level is: High Risk
Orbit Information
数据来源 国际轨道数据 AOE轨道数据
星历时间 2026-09-12T11:31:01+0800
6小时前
查看轨道信息
2026-09-06T00:00:00+0800
6天前
查看轨道信息
半长轴 6840.855km 6840.89km
偏心率 0.0001011 0.0001257
轨道倾角 53.158° 53.158°
近地点辐角 104.909° 90.679°
升交点赤经 157.099° 187.389°
平近点角 255.202° 95.834°
近地点 462.026km 461.893km
远地点 463.41km 463.613km
周期 93.848分钟 93.849分钟
每日圈数 15.343951 15.343833
Detailed Information
固有亮度:
5
最大亮度:
2.5
卫星平台:
Starlink V1.0
覆盖范围:
全球
运营商:
太空探索技术公司
运营商所在国:
美国
制造商(研发单位):
太空探索技术公司
制造商所在国:
美国
使用方式:
暂无
Satellite Introduction
Starlink 计划是 SpaceX 推出的全球卫星互联网项目,通过发射低轨道卫星,为全球尤其是偏远地区提供高速、低延迟的互联网服务。自 2019 年起,Starlink 已部署数千颗卫星,旨在缩小全球数字鸿沟,推动互联网普及。该项目还为军事、航空等行业提供通信支持,带来广泛经济效益。
2D Orbit Map
3D Orbit Map
Orbit Altitude Analysis Chart
Orbit Inclination Analysis Chart
Orbit Comprehensive Analysis Chart
View Comprehensive Chart
Conjunction Data List
Event ID Objects TCA Miss Dist (km) Collision Risk Probability Collision Risk Index (CRI) Action
CDM_260914-044006-172806-562921
2026-09-14T
04:40:07+0000
1.023 km
极远距离
2.157321E-5 中风险 0.62
CDM_260914-061306-172806-562921
2026-09-14T
06:13:54+0000
1.454 km
极远距离
6.425001E-6 低风险 0.51
CDM_260914-133405-328306-562921
2026-09-14T
13:34:49+0000
1.460 km
极远距离
5.474929E-6 低风险 0.5
CDM_260914-020205-765506-562921
2026-09-14T
02:02:13+0000
2.234 km
极远距离
1.970702E-6 低风险 0.41
CDM_260914-061005-246406-562922
2026-09-14T
06:10:08+0000
2.417 km
极远距离
1.5932E-6 低风险 0.39
CDM_260914-030606-172806-562921
2026-09-14T
03:06:19+0000
2.589 km
极远距离
1.457869E-6 低风险 0.38
CDM_260913-212606-562906-956221
2026-09-13T
21:26:23+0000
2.857 km
极远距离
1.369905E-6 低风险 0.38
CDM_260913-130105-353706-562923
2026-09-13T
13:01:24+0000
2.739 km
极远距离
1.329026E-6 低风险 0.37
Miss Distance Evolution Trend with All Objects
Collision Probability Evolution Trend with All Objects